W3EJE-13 Weather Reports


Display with metric or nautical units.
time (UTC)temp
F
wind
direction
speed
MPH
gust
MPH
rain 1hr
in
rain 24hr
in
rain mn
in
humidity
%
barometer
mb
20260506051115 57 215 0.0 0.0 0.00 0.00 0.00 86 1010.6
20260506050614 58 215 0.0 0.0 0.00 0.00 0.00 86 1010.7
20260506050111 58 215 0.0 0.0 0.00 0.00 0.00 83 1010.9
20260506045104 57 216 0.0 0.0 0.00 0.00 0.00 84 1011.0
20260506044602 57 216 0.0 0.0 0.00 0.00 0.00 84 1011.4
20260506044058 57 216 0.0 0.0 0.00 0.00 0.00 85 1011.1
20260506043555 57 216 0.0 0.0 0.00 0.00 0.00 85 1011.4
20260506043054 58 216 0.0 1.0 0.00 0.00 0.00 84 1011.5
20260506042553 58 215 0.0 0.0 0.00 0.00 0.00 83 1011.3
20260506042050 57 213 0.0 1.0 0.00 0.00 0.00 85 1011.7
20260506041549 57 217 0.0 1.0 0.00 0.00 0.00 86 1011.5
20260506041045 57 238 0.0 0.0 0.00 0.00 0.00 87 1011.6
20260506040543 57 263 1.0 1.0 0.00 0.00 0.00 87 1011.4
20260506040038 57 216 0.0 0.0 0.00 0.00 0.00 84 1011.0
20260506035536 58 218 0.0 0.0 0.00 0.00 0.00 84 1011.2
20260506035032 58 218 0.0 0.0 0.00 0.00 0.00 80 1011.3
20260506034530 58 218 0.0 0.0 0.00 0.00 0.00 80 1011.4
20260506034026 58 219 0.0 0.0 0.00 0.00 0.00 80 1011.0
20260506033524 58 207 1.0 1.0 0.00 0.00 0.00 81 1011.2
20260506033021 58 217 0.0 0.0 0.00 0.00 0.00 82 1011.5
20260506032518 58 217 0.0 1.0 0.00 0.00 0.00 82 1011.5
20260506032015 58 219 0.0 0.0 0.00 0.00 0.00 82 1011.2
20260506031513 58 235 0.0 0.0 0.00 0.00 0.00 81 1011.6
20260506031009 57 234 0.0 0.0 0.00 0.00 0.00 81 1011.6
20260506030508 57 234 0.0 0.0 0.00 0.00 0.00 82 1011.7
20260506030004 57 235 0.0 0.0 0.00 0.00 0.00 82 1011.7
20260506025501 57 235 0.0 0.0 0.00 0.00 0.00 82 1011.5
20260506024957 57 235 0.0 0.0 0.00 0.00 0.00 82 1011.7
20260506024454 57 235 0.0 0.0 0.00 0.00 0.00 82 1011.7
20260506023950 57 235 0.0 0.0 0.00 0.00 0.00 80 1011.5
20260506023447 58 235 0.0 0.0 0.00 0.00 0.00 80 1011.9
20260506022944 58 235 0.0 0.0 0.00 0.00 0.00 79 1011.2
20260506022442 58 235 0.0 0.0 0.00 0.00 0.00 79 1011.5
20260506021939 58 235 0.0 0.0 0.00 0.00 0.00 78 1011.5
20260506021436 58 235 0.0 0.0 0.00 0.00 0.00 79 1011.5
20260506020933 58 235 0.0 0.0 0.00 0.00 0.00 79 1011.4
20260506020431 59 234 0.0 0.0 0.00 0.00 0.00 78 1011.6
20260506015928 59 233 0.0 0.0 0.00 0.00 0.00 77 1011.6
20260506015426 59 235 0.0 0.0 0.00 0.00 0.00 76 1011.7
20260506014922 60 221 0.0 0.0 0.00 0.00 0.00 74 1011.5
20260506014419 60 226 0.0 0.0 0.00 0.00 0.00 73 1011.3
20260506013916 59 214 1.0 1.0 0.00 0.00 0.00 73 1011.6
20260506013414 59 215 0.0 0.0 0.00 0.00 0.00 73 1011.7
20260506012910 60 215 0.0 0.0 0.00 0.00 0.00 73 1011.6
20260506012407 60 215 0.0 0.0 0.00 0.00 0.00 72 1011.7
20260506011903 61 215 0.0 0.0 0.00 0.00 0.00 71 1011.5
20260506011401 61 222 0.0 0.0 0.00 0.00 0.00 70 1011.6
20260506010858 62 223 0.0 0.0 0.00 0.00 0.00 69 1011.3
20260506010356 63 215 0.0 1.0 0.00 0.00 0.00 67 1011.2
20260506005852 64 220 0.0 1.0 0.00 0.00 0.00 63 1011.5
20260506005350 64 221 0.0 0.0 0.00 0.00 0.00 62 1011.4
20260506004845 64 228 0.0 0.0 0.00 0.00 0.00 62 1011.5
20260506004343 64 247 0.0 0.0 0.00 0.00 0.00 61 1011.5
20260506003839 64 234 0.0 0.0 0.00 0.00 0.00 61 1011.5
20260506003335 65 254 1.0 2.0 0.00 0.00 0.00 60 1011.4
20260506002832 65 250 0.0 1.0 0.00 0.00 0.00 60 1011.4
20260506002328 66 255 1.0 1.0 0.00 0.00 0.00 59 1011.3
20260506001824 66 268 2.0 2.0 0.00 0.00 0.00 59 1011.3
20260506001322 66 252 2.0 2.0 0.00 0.00 0.00 57 1011.4
20260506000818 66 259 2.0 2.0 0.00 0.00 0.00 57 1011.3
20260506000316 67 258 3.0 3.0 0.00 0.00 0.00 57 1011.3
20260505235813 67 327 0.0 0.0 0.00 0.00 0.00 57 1011.0
20260505235310 68 249 3.0 3.0 0.00 0.00 0.00 56 1011.3
20260505234807 68 274 3.0 3.0 0.00 0.00 0.00 57 1011.1
20260505234305 68 254 4.0 5.0 0.00 0.00 0.00 55 1011.1
20260505233801 68 288 3.0 3.0 0.00 0.00 0.00 55 1011.1
20260505233259 68 276 4.0 5.0 0.00 0.00 0.00 54 1011.3
20260505232756 68 240 3.0 3.0 0.00 0.00 0.00 55 1011.1
20260505232253 69 284 5.0 5.0 0.00 0.00 0.00 54 1011.2
20260505231750 69 264 4.0 6.0 0.00 0.00 0.00 52 1011.3
20260505231249 69 284 6.0 8.0 0.00 0.00 0.00 53 1011.2
20260505230747 69 230 3.0 5.0 0.00 0.00 0.00 52 1011.1
20260505230243 69 240 4.0 6.0 0.00 0.00 0.00 51 1011.0
20260505225739 69 340 4.0 6.0 0.00 0.00 0.00 52 1011.1
20260505225237 69 293 4.0 6.0 0.00 0.00 0.00 51 1011.2
20260505224732 69 285 6.0 8.0 0.00 0.00 0.00 52 1011.4
20260505224230 70 249 3.0 5.0 0.00 0.00 0.00 53 1011.2
20260505223727 70 270 4.0 5.0 0.00 0.00 0.00 49 1011.5
20260505223223 70 324 5.0 6.0 0.00 0.00 0.00 51 1011.4
20260505222719 70 334 6.0 8.0 0.00 0.00 0.00 48 1011.5
20260505222215 70 283 4.0 5.0 0.00 0.00 0.00 48 1011.6
20260505221713 71 279 5.0 5.0 0.00 0.00 0.00 47 1011.4
20260505221209 71 215 5.0 7.0 0.00 0.00 0.00 49 1011.3
20260505220706 71 276 4.0 7.0 0.00 0.00 0.00 49 1011.5
20260505220204 71 302 3.0 3.0 0.00 0.00 0.00 48 1011.5
20260505215702 71 263 6.0 10.0 0.00 0.00 0.00 47 1011.4
20260505215200 70 278 5.0 8.0 0.00 0.00 0.00 48 1011.5
20260505214657 71 262 9.0 11.0 0.00 0.00 0.00 50 1011.4
20260505214154 70 331 4.0 5.0 0.00 0.00 0.00 52 1011.3
20260505213652 70 279 5.0 6.0 0.00 0.00 0.00 49 1011.4
20260505213149 71 322 4.0 7.0 0.00 0.00 0.00 52 1011.4
20260505212644 70 271 5.0 7.0 0.00 0.00 0.00 50 1011.4
20260505212142 71 319 7.0 7.0 0.00 0.00 0.00 50 1011.3
20260505211639 71 261 4.0 7.0 0.00 0.00 0.00 50 1011.3
20260505211136 71 229 2.0 3.0 0.00 0.00 0.00 47 1011.3
20260505210633 71 224 6.0 10.0 0.00 0.00 0.00 48 1011.4
20260505210130 71 315 6.0 9.0 0.00 0.00 0.00 47 1011.6
20260505205627 72 23 2.0 5.0 0.00 0.00 0.00 47 1011.4
20260505205125 72 185 3.0 3.0 0.00 0.00 0.00 47 1011.3
20260505204622 72 333 4.0 5.0 0.00 0.00 0.00 47 1011.4
20260505204119 72 189 3.0 5.0 0.00 0.00 0.00 48 1011.2
20260505203616 73 322 9.0 11.0 0.00 0.00 0.00 46 1011.3
20260505203113 73 198 9.0 11.0 0.00 0.00 0.00 47 1011.0
20260505202609 73 9 10.0 14.0 0.00 0.00 0.00 46 1011.2
20260505202105 75 263 6.0 7.0 0.00 0.00 0.00 45 1011.1
20260505201602 74 276 3.0 5.0 0.00 0.00 0.00 44 1011.1
20260505201100 75 19 7.0 9.0 0.00 0.00 0.00 43 1011.1
20260505200557 75 356 7.0 10.0 0.00 0.00 0.00 44 1011.1
20260505200054 75 292 5.0 7.0 0.00 0.00 0.00 43 1011.2
20260505195550 75 7 7.0 9.0 0.00 0.00 0.00 46 1011.1
20260505195048 74 10 9.0 10.0 0.00 0.00 0.00 45 1011.0
20260505194545 76 290 6.0 9.0 0.00 0.00 0.00 45 1010.9
20260505194040 77 159 5.0 7.0 0.00 0.00 0.00 44 1010.8
20260505193537 75 261 4.0 6.0 0.00 0.00 0.00 47 1011.1
20260505193035 75 297 7.0 9.0 0.00 0.00 0.00 45 1011.0
20260505192533 75 349 4.0 7.0 0.00 0.00 0.00 46 1011.0
20260505192030 76 268 4.0 5.0 0.00 0.00 0.00 46 1011.0
20260505191528 75 268 1.0 3.0 0.00 0.00 0.00 46 1011.2
20260505191026 76 255 4.0 6.0 0.00 0.00 0.00 48 1011.0
20260505190520 75 303 3.0 5.0 0.00 0.00 0.00 47 1011.0
20260505190017 76 304 13.0 16.0 0.00 0.00 0.00 47 1011.1
20260505185514 75 329 3.0 3.0 0.00 0.00 0.00 46 1011.3
20260505185010 76 232 2.0 3.0 0.00 0.00 0.00 46 1011.3
20260505184507 75 13 5.0 9.0 0.00 0.00 0.00 46 1011.3
20260505184004 75 300 9.0 11.0 0.00 0.00 0.00 50 1011.5
20260505183501 75 275 6.0 7.0 0.00 0.00 0.00 51 1011.4
20260505182957 75 187 5.0 8.0 0.00 0.00 0.00 48 1011.6
20260505182454 75 203 2.0 7.0 0.00 0.00 0.00 47 1011.5
20260505181950 75 272 8.0 9.0 0.00 0.00 0.00 49 1011.2
20260505181448 75 271 8.0 10.0 0.00 0.00 0.00 49 1011.5
20260505180945 75 206 3.0 5.0 0.00 0.00 0.00 48 1011.2
20260505180441 74 338 3.0 7.0 0.00 0.00 0.00 48 1011.5
20260505175938 74 342 9.0 9.0 0.00 0.00 0.00 52 1011.4
20260505175434 74 229 4.0 6.0 0.00 0.00 0.00 51 1011.5
20260505174930 74 267 5.0 7.0 0.00 0.00 0.00 52 1011.5
20260505174428 74 294 4.0 7.0 0.00 0.00 0.00 50 1011.5
20260505173924 74 199 4.0 6.0 0.00 0.00 0.00 49 1011.5
20260505173420 74 32 4.0 6.0 0.00 0.00 0.00 48 1011.6
20260505172918 73 350 6.0 7.0 0.00 0.00 0.00 49 1011.7
20260505172416 73 37 4.0 6.0 0.00 0.00 0.00 51 1011.7
20260505171915 73 304 6.0 9.0 0.00 0.00 0.00 50 1011.8
20260505171412 73 96 3.0 6.0 0.00 0.00 0.00 50 1011.9
20260505170908 73 235 6.0 7.0 0.00 0.00 0.00 50 1011.9
20260505170405 73 277 4.0 5.0 0.00 0.00 0.00 49 1012.0
20260505165901 72 236 9.0 14.0 0.00 0.00 0.00 53 1012.1
20260505165356 73 41 5.0 6.0 0.00 0.00 0.00 52 1012.3
20260505164852 73 354 3.0 6.0 0.00 0.00 0.00 50 1012.3
20260505164349 73 237 6.0 8.0 0.00 0.00 0.00 51 1012.0
20260505163847 72 18 5.0 7.0 0.00 0.00 0.00 53 1012.1
20260505163346 72 249 7.0 8.0 0.00 0.00 0.00 52 1012.4
20260505162844 72 257 5.0 9.0 0.00 0.00 0.00 54 1012.3
20260505162340 71 251 2.0 2.0 0.00 0.00 0.00 55 1012.3
20260505161837 70 284 8.0 10.0 0.00 0.00 0.00 53 1012.0
20260505161334 71 179 5.0 7.0 0.00 0.00 0.00 55 1012.4
20260505160831 70 259 3.0 3.0 0.00 0.00 0.00 56 1012.6
20260505160330 70 281 5.0 7.0 0.00 0.00 0.00 58 1012.4
20260505153308 68 304 5.0 7.0 0.00 0.00 0.00 62 1013.1
20260505152805 68 266 6.0 10.0 0.00 0.00 0.00 60 1013.1
20260505152304 68 352 9.0 10.0 0.00 0.00 0.00 61 1012.8
20260505151756 68 262 8.0 10.0 0.00 0.00 0.00 60 1012.9
20260505151254 68 284 7.0 10.0 0.00 0.00 0.00 60 1013.0
20260505150750 68 286 6.0 8.0 0.00 0.00 0.00 62 1013.0
20260505150247 68 297 7.0 9.0 0.00 0.00 0.00 63 1013.0
20260505140212 67 278 8.0 10.0 0.00 0.00 0.00 62 1012.7
20260505130136 65 274 6.0 7.0 0.00 0.00 0.00 63 1012.7
20260505124625 66 134 8.0 9.0 0.00 0.00 0.00 63 1012.8
20260505124122 66 35 5.0 8.0 0.00 0.00 0.00 63 1012.7
20260505123618 65 17 7.0 9.0 0.00 0.00 0.00 65 1012.8
20260505123115 65 290 7.0 8.0 0.00 0.00 0.00 65 1013.0
20260505122611 65 311 8.0 9.0 0.00 0.00 0.00 64 1012.8
20260505122109 65 267 10.0 13.0 0.00 0.00 0.00 64 1013.2
20260505121605 65 47 14.0 16.0 0.00 0.00 0.00 64 1012.8
20260505121102 64 311 7.0 11.0 0.00 0.00 0.00 65 1013.0
20260505120558 64 319 9.0 14.0 0.00 0.00 0.00 65 1013.1
20260505120054 64 272 5.0 7.0 0.00 0.00 0.00 64 1013.1
20260505115548 64 290 5.0 6.0 0.00 0.00 0.00 65 1012.9
20260505115046 64 290 8.0 11.0 0.00 0.00 0.00 65 1012.9
20260505114543 64 17 11.0 14.0 0.00 0.00 0.00 65 1013.0
20260505114039 64 72 4.0 6.0 0.00 0.00 0.00 66 1012.9
20260505113536 63 2 5.0 8.0 0.00 0.00 0.00 67 1013.1
20260505113032 63 307 6.0 8.0 0.00 0.00 0.00 67 1013.2
20260505112528 63 330 4.0 6.0 0.00 0.00 0.00 68 1013.0
20260505112026 63 351 5.0 7.0 0.00 0.00 0.00 66 1013.0
20260505111520 63 299 5.0 7.0 0.00 0.00 0.00 66 1013.0
20260505111017 63 267 5.0 7.0 0.00 0.00 0.00 66 1012.8
20260505110514 63 295 3.0 5.0 0.00 0.00 0.00 67 1012.8
20260505101945 55 235 0.0 0.0 0.00 0.00 0.00 81 1012.3
20260505101438 56 248 0.0 1.0 0.00 0.00 0.00 81 1012.3
20260505100934 55 333 0.0 1.0 0.00 0.00 0.00 84 1012.4
20260505100432 54 233 0.0 0.0 0.00 0.00 0.00 87 1011.9
20260505095927 53 231 0.0 0.0 0.00 0.00 0.00 89 1012.0
20260505095425 53 228 0.0 0.0 0.00 0.00 0.00 89 1012.0
20260505094920 53 223 0.0 0.0 0.00 0.00 0.00 91 1012.5
20260505094418 52 156 2.0 2.0 0.00 0.00 0.00 91 1012.1
20260505093914 53 221 0.0 0.0 0.00 0.00 0.00 91 1012.0
20260505093411 53 210 1.0 1.0 0.00 0.00 0.00 91 1012.3
20260505092908 52 176 2.0 2.0 0.00 0.00 0.00 92 1011.9
20260505092406 52 185 1.0 1.0 0.00 0.00 0.00 92 1012.1
20260505091903 53 223 0.0 0.0 0.00 0.00 0.00 91 1012.0
20260505091401 53 227 0.0 0.0 0.00 0.00 0.00 90 1011.9
20260505090858 53 180 2.0 2.0 0.00 0.00 0.00 90 1011.9
20260505090356 54 243 0.0 0.0 0.00 0.00 0.00 88 1011.9
20260505085853 55 215 1.0 1.0 0.00 0.00 0.00 87 1012.0
20260505085351 56 232 0.0 0.0 0.00 0.00 0.00 86 1011.9
20260505084849 57 206 1.0 1.0 0.00 0.00 0.00 84 1012.3
20260505084347 58 208 1.0 1.0 0.00 0.00 0.00 83 1012.3
20260505083844 59 247 0.0 0.0 0.00 0.00 0.00 82 1012.3
20260505083342 58 259 0.0 0.0 0.00 0.00 0.00 81 1012.3
20260505082838 54 257 1.0 2.0 0.00 0.00 0.00 87 1012.1
20260505082334 53 262 0.0 0.0 0.00 0.00 0.00 92 1012.5
20260505081831 52 242 0.0 0.0 0.00 0.00 0.00 91 1012.1
20260505081327 52 221 0.0 0.0 0.00 0.00 0.00 90 1011.9
20260505080825 53 249 0.0 0.0 0.00 0.00 0.00 89 1011.7
20260505080320 53 206 0.0 0.0 0.00 0.00 0.00 88 1011.7
20260505075816 53 206 0.0 0.0 0.00 0.00 0.00 89 1011.8
20260505075313 52 205 0.0 0.0 0.00 0.00 0.00 89 1011.7
20260505074810 52 208 0.0 0.0 0.00 0.00 0.00 89 1011.7
20260505074308 53 214 0.0 0.0 0.00 0.00 0.00 89 1011.4
20260505073805 52 215 0.0 0.0 0.00 0.00 0.00 91 1011.7
20260505073303 52 210 0.0 0.0 0.00 0.00 0.00 92 1011.5
20260505072800 51 194 0.0 0.0 0.00 0.00 0.00 92 1011.7
20260505072255 51 210 0.0 0.0 0.00 0.00 0.00 92 1011.7
20260505071751 51 210 0.0 0.0 0.00 0.00 0.00 92 1011.5
20260505071248 51 198 0.0 0.0 0.00 0.00 0.00 92 1011.6
20260505070746 51 203 0.0 0.0 0.00 0.00 0.00 92 1011.5
20260505070242 51 213 0.0 0.0 0.00 0.00 0.00 92 1011.5
20260505065738 51 215 0.0 0.0 0.00 0.00 0.00 92 1011.6
20260505065235 51 222 0.0 0.0 0.00 0.00 0.00 91 1011.4
20260505064732 51 204 0.0 0.0 0.00 0.00 0.00 90 1011.7
20260505064229 52 221 0.0 0.0 0.00 0.00 0.00 91 1011.8
20260505063727 51 209 0.0 0.0 0.00 0.00 0.00 91 1011.8
20260505063223 51 180 0.0 0.0 0.00 0.00 0.00 91 1011.7
20260505062719 51 232 0.0 0.0 0.00 0.00 0.00 91 1012.0
20260505062217 51 174 0.0 0.0 0.00 0.00 0.00 91 1011.7
20260505061714 51 191 0.0 0.0 0.00 0.00 0.00 91 1011.8
20260505061212 51 179 0.0 0.0 0.00 0.00 0.00 91 1011.6
20260505060709 51 208 0.0 0.0 0.00 0.00 0.00 92 1011.6
20260505060206 51 185 0.0 0.0 0.00 0.00 0.00 92 1011.6
20260505055701 50 197 0.0 0.0 0.00 0.00 0.00 92 1011.7
20260505055158 51 193 0.0 0.0 0.00 0.00 0.00 91 1011.7
20260505054655 51 191 1.0 1.0 0.00 0.00 0.00 91 1011.8
20260505054153 51 185 1.0 2.0 0.00 0.00 0.00 91 1011.6
20260505053650 51 188 1.0 1.0 0.00 0.00 0.00 91 1012.0
20260505053147 51 188 1.0 2.0 0.00 0.00 0.00 91 1012.0